Weather History for Champaign, IL

Change the Weather History Date:

Sunday, February 2, 2014

  Actual Average Record
Temperature  
Mean Temperature 20 °F 26 °F  
Max Temperature 28 °F 35 °F 54 °F (2012)
Min Temperature 11 °F 18 °F 1 °F (2001)
Degree Days  
Heating Degree Days 45 39  
Month to date heating degree days 78 78  
Since 1 July heating degree days 3858 3588  
Cooling Degree Days 0 0  
Month to date cooling degree days 0 0  
Year to date cooling degree days 0 0  
Moisture  
Dew Point 16 °F    
Average Humidity 78    
Maximum Humidity 88    
Minimum Humidity 67    
Precipitation  
Precipitation 0.00 in 0.07 in 0.19 in (2004)
Month to date precipitation 0.89 0.13  
Year to date precipitation 1.60 2.18  
Sea Level Pressure  
Sea Level Pressure 30.21 in    
Wind  
Wind Speed 12 mph (NNW)    
Max Wind Speed 20 mph    
Max Gust Speed 23 mph    
Visibility 6 miles    
Events Snow    
T = Trace of Precipitation, MM = Missing Value Source: NWS Daily Summary

Daily Weather History Graph

Daily Weather History Graph

Search for Another Location

Airport:

Trip Planner

Search our weather history database for the weather conditions in past years. The results will help you decide how hot, cold, wet, or windy it might be!

Date:

Astronomy

Feb. 02, 2014 Rise Set
Actual Time 7:00 AM CST 5:13 PM CST
Civil Twilight 6:32 AM CST 5:42 PM CST
Nautical Twilight 5:59 AM CST 6:14 PM CST
Astronomical Twilight 5:28 AM CST 6:46 PM CST
Moon 8:27 AM CST (2/2) 8:57 PM CST (2/2)
Length of Visible Light 11h 09m
Length of Day
10h 12m
Waxing Crescent, 11% of the Moon is Illuminated
Feb 2
Waxing Crescent
Feb 6
First Quarter
Feb 14
Full
Feb 22
Last Quarter
Mar 1
New

Hourly Weather History & Observations

Time (CST) Temp. Windchill Dew Point Humidity Pressure Visibility Wind Dir Wind Speed Gust Speed Precip Events Conditions
12:53 AM 26.1 °F 14.0 °F 23.0 °F 88% 30.10 in 3.0 mi NNW 15.0 mph - N/A   Overcast
1:53 AM 26.1 °F 14.0 °F 23.0 °F 88% 30.11 in 3.0 mi NNW 15.0 mph - 0.00 in Snow Light Snow
2:02 AM 24.8 °F 11.9 °F 21.2 °F 86% 30.09 in 3.0 mi North 16.1 mph - 0.00 in Snow Light Snow
2:20 AM 24.8 °F 12.4 °F 21.2 °F 86% 30.09 in 2.0 mi NNW 15.0 mph - 0.00 in Snow Light Snow
2:29 AM 24.8 °F 11.9 °F 21.2 °F 86% 30.09 in 1.5 mi NNW 16.1 mph - 0.00 in Snow Light Snow
2:43 AM 24.8 °F 13.4 °F 21.2 °F 86% 30.11 in 2.5 mi NNW 12.7 mph - 0.00 in Snow Light Snow
2:50 AM 24.8 °F 12.9 °F 21.2 °F 86% 30.11 in 2.5 mi NNW 13.8 mph - 0.00 in Snow Light Snow
2:53 AM 25.0 °F 12.6 °F 21.9 °F 88% 30.14 in 3.0 mi NNW 15.0 mph - 0.00 in Snow Light Snow
3:11 AM 24.8 °F 12.9 °F 21.2 °F 86% 30.11 in 2.0 mi NNW 13.8 mph - 0.00 in Snow Light Snow
3:34 AM 24.8 °F 14.6 °F 21.2 °F 86% 30.12 in 2.5 mi NNW 10.4 mph - 0.00 in Snow Light Snow
3:41 AM 24.8 °F 13.4 °F 21.2 °F 86% 30.12 in 3.0 mi NNW 12.7 mph - 0.00 in Snow Light Snow
3:53 AM 24.1 °F 13.1 °F 21.0 °F 88% 30.14 in 2.5 mi NNW 11.5 mph - 0.00 in Snow Light Snow
4:11 AM 24.8 °F 14.0 °F 21.2 °F 86% 30.11 in 3.0 mi NNW 11.5 mph - 0.00 in Snow Light Snow
4:53 AM 23.0 °F 11.7 °F 19.0 °F 85% 30.16 in 3.0 mi NNW 11.5 mph - 0.00 in   Clear
5:53 AM 21.9 °F 11.7 °F 18.0 °F 85% 30.18 in 7.0 mi NNW 9.2 mph - N/A   Clear
6:53 AM 19.9 °F 8.6 °F 16.0 °F 85% 30.21 in 8.0 mi NNW 10.4 mph - N/A   Clear
7:53 AM 19.9 °F 5.2 °F 15.1 °F 81% 30.26 in 7.0 mi NNW 17.3 mph 20.7 mph N/A   Clear
8:53 AM 18.0 °F 3.6 °F 12.9 °F 81% 30.28 in 7.0 mi NNW 15.0 mph - N/A   Clear
9:53 AM 19.0 °F 5.6 °F 14.0 °F 81% 30.31 in 7.0 mi NNW 13.8 mph - N/A   Clear
10:53 AM 21.9 °F 8.2 °F 16.0 °F 78% 30.27 in 7.0 mi North 16.1 mph - N/A   Clear
11:53 AM 21.0 °F 8.1 °F 14.0 °F 74% 30.28 in 7.0 mi North 13.8 mph - N/A   Clear
12:53 PM 21.9 °F 11.0 °F 14.0 °F 72% 30.26 in 8.0 mi NNW 10.4 mph - N/A   Clear
1:53 PM 21.0 °F 11.4 °F 14.0 °F 74% 30.30 in 8.0 mi NNW 8.1 mph - N/A   Clear
2:53 PM 21.0 °F 9.3 °F 14.0 °F 74% 30.29 in 8.0 mi North 11.5 mph - N/A   Clear
3:53 PM 19.9 °F 7.9 °F 12.9 °F 74% 30.31 in 8.0 mi NNW 11.5 mph - N/A   Clear
4:53 PM 19.0 °F 6.8 °F 10.9 °F 71% 30.32 in 8.0 mi NNW 11.5 mph - N/A   Clear
5:53 PM 17.1 °F 3.6 °F 10.0 °F 74% 30.32 in 9.0 mi North 12.7 mph - N/A   Clear
6:53 PM 16.0 °F 2.9 °F 10.0 °F 77% 30.31 in 8.0 mi North 11.5 mph - N/A   Clear
7:53 PM 15.1 °F 5.2 °F 10.0 °F 80% 30.32 in 8.0 mi NNW 6.9 mph - N/A   Clear
8:53 PM 14.0 °F 3.9 °F 8.1 °F 77% 30.32 in 8.0 mi North 6.9 mph - N/A   Clear
9:53 PM 12.9 °F 1.6 °F 7.0 °F 77% 30.33 in 8.0 mi North 8.1 mph - N/A   Clear
10:53 PM 12.9 °F -0.9 °F 6.1 °F 74% 30.31 in 8.0 mi North 11.5 mph - N/A   Clear
11:53 PM 10.9 °F -4.1 °F 5.0 °F 77% 30.30 in 8.0 mi North 12.7 mph - N/A   Clear